Content
SEND FEEDBACK

Daily
Averages
Monthly
Summary
United States of America

PETERSBURG, ILLINOIS


Home > North America > United States > Illinois
Elevation: 520 feet     Latitude: 40 01N     Longitude: 089 51W

WEATHER
 
SELECT A DAY
Number of Records: 206,522;   Date Range: 1/1/95 - 10/21/14
 
SHARE

PRINT THIS DATA

[ ← Previous Day ]
WEATHER ALMANAC - JANUARY 31, 2013
[ Next Day → ]
[ °C ]   °F
Weather ElementAverageHighLow
Temperature18.6 °F25 °F (3:52 am)6.8 °F (11:24 pm)
Dewpoint8.8 °F19 °F (6:52 am)-4 °F (9:52 pm)
Humidity65.6 %81 % (6:52 am)57 % (2:52 pm)
Barometer30.07 in30.37 in (11:52 pm)29.88 in (3:52 am)
Wind Speed17.9 mph24.2 mph (3:52 pm)
Wind Gust35.7 mph (3:52 pm)
Weather ElementAverage
Visibility9.9 mi
Wind DirectionWNW (289.2 °)

Weather ElementTotal
Precipitation---
Heating Degree Days49.1 (Base 65)
Averaged from 25 records on January 31, 2013
WEATHER CONDITIONS BREAKOUT
WIND DIRECTION BREAKOUT
WEATHER BY HOUR - JANUARY 31, 2013
[ °C ]   °F
Local TimeTemperatureDewpointHumidityBarometerVisibilityWind DirectionWind SpeedGust SpeedPrecipitationEventsConditions
1:52 AM21.0 °F14.0 °F74 %29.89 in10.0 miWest (270°)11.5 mphPartly Cloudy
2:52 AM24.1 °F16.0 °F71 %29.89 in10.0 miWest (260°)15.0 mphOvercast
3:52 AM25.0 °F15.1 °F66 %29.88 in10.0 miWest (260°)17.3 mphOvercast
4:52 AM25.0 °F16.0 °F69 %29.88 in10.0 miWest (260°)19.6 mphOvercast
5:52 AM25.0 °F17.1 °F72 %29.90 in10.0 miWest (270°)17.3 mph26.5 mph0.00 inOvercast
6:52 AM24.1 °F19.0 °F81 %29.92 in10.0 miWest (270°)16.1 mph25.3 mph0.00 inOvercast
7:52 AM24.1 °F18.0 °F77 %29.94 in10.0 miWNW (290°)12.7 mph0.00 inOvercast
8:52 AM24.1 °F15.1 °F69 %29.96 in10.0 miWNW (290°)15.0 mph23.0 mphMostly Cloudy
9:52 AM25.0 °F12.9 °F60 %29.99 in10.0 miWNW (290°)18.4 mph24.2 mphPartly Cloudy
10:50 AM24.8 °F14.0 °F64 %29.99 in10.0 miWest (270°)19.6 mph25.3 mphOvercast
10:52 AM24.1 °F14.0 °F65 %30.01 in10.0 miWest (280°)20.7 mph25.3 mphOvercast
11:52 AM25.0 °F14.0 °F63 %30.02 in10.0 miWNW (290°)15.0 mph28.8 mphOvercast
12:06 PM24.8 °F12.2 °F59 %29.99 in10.0 miWNW (300°)19.6 mph27.6 mphMostly Cloudy
12:52 PM24.1 °F12.9 °F62 %30.02 in10.0 miWNW (300°)19.6 mph28.8 mphMostly Cloudy
2:52 PM19.9 °F7.0 °F57 %30.06 in10.0 miNW (310°)19.6 mph28.8 mphMostly Cloudy
3:52 PM16.0 °F3.0 °F57 %30.12 in10.0 miWNW (300°)24.2 mph35.7 mphOvercast
4:52 PM15.1 °F6.1 °F68 %30.15 in8.0 miNW (310°)20.7 mph28.8 mph0.00 inSnowLight Snow
5:52 PM12.9 °F1.9 °F62 %30.18 in10.0 miNW (310°)20.7 mph29.9 mph0.00 inOvercast
6:52 PM12.9 °F1.9 °F62 %30.22 in10.0 miNW (310°)10.4 mph29.9 mphOvercast
7:52 PM10.9 °F0.0 °F61 %30.25 in10.0 miNW (320°)18.4 mph28.8 mph0.00 inMostly Cloudy
8:52 PM9.0 °F-2.0 °F61 %30.28 in10.0 miWNW (300°)20.7 mph29.9 mph0.00 inScattered Clouds
9:52 PM8.1 °F-4.0 °F58 %30.30 in10.0 miWNW (290°)20.7 mphMostly Cloudy
10:52 PM7.0 °F-4.0 °F61 %30.34 in10.0 miWNW (290°)19.6 mph28.8 mphScattered Clouds
11:24 PM6.8 °F-0.4 °F72 %30.32 in9.0 miWNW (300°)19.6 mph26.5 mphMostly Cloudy
11:52 PM7.0 °F-0.9 °F70 %30.37 in10.0 miWNW (290°)16.1 mph24.2 mphOvercast
Hourly data recorded from KSPI, located miles away from Petersburg, Illinois







STORIES FROM OUR PARTNERS